Location: Morisset
(33.1080°S, 151.4871°E)
Time: 09:03:20
(UTC+00:00)

CZ-2C R/B - Pass Details

Date: 29 October 2020
Orbit: 502 x 566 km, 97.7° (Epoch: 27 November)

Event Time Altitude Azimuth Distance (km) Brightness Sun altitude
Exits shadow 16:41:14 41° 176° (S) 781 3.8 -25.9°
Drops below altitude 10° 16:43:50 10° 187° (S) 1,780 5.8 -25.5°
Sets 16:45:56 0° 189° (S) 2,668 6.7 -25.1°
